Showing default

SJ-30A, 66545

Orbit data source: Space-Track

SJ-30A, 66545 is a payload satellite owned by CASC (CN) in LEO that was launched on Wed, 19 Nov 2025 UTC via a CHANG ZHENG 2C launch vehicle from the Jiuquan Satellite Launch Center, China (JSC). Payload-class satellites include a variety of spacecraft equipped with specific instruments for various scientific and technological missions. These include communications satellites like Starlink; space stations such as the ISS; scientific satellites like the Hubble; Earth observation satellites from companies like Planet Labs, Umbra, and HawkEye 360; GPS; miniature CubeSats for education and research; and military/defense satellites.

Loading next visibility...
Identifier
66545, 2025-266A
Orbit
LEO
Country
Flag of CNCN / PRC
Related business
Manufacturer
SAST
Mission
Operational Defense Technology
Bus & Motor
SJ30, Unknown motor
Mass
~500 kg wet, ~500 kg dry
Launch date (UTC)
2025-11-19 (7 months ago)
Launch vehicle
CHANG ZHENG 2C
Launch site
Jiuquan Satellite Launch Center, China (JSC)
Object type
Payload
Rocket body
Debris
Shape & HBR
Box + 2 Pan, 14.5 m
Radar Cross Section
3.585 m², Large (>1 m²)

Expand to show TLE details & history
Last TLE update: 9 hours ago

TLE from 9 hours ago
0 SJ-30A
1 66545U 25266A   26171.46952772  .00005359  00000-0  29558-3 0  9990
2 66545  51.7976 164.0219 0007320 265.8507  94.1632 15.15465769 32358
Epoch: 2026-06-20T11:16Z
TLE epoch observation values (Epoch: 2026-06-20T11:16:07.195Z)
Latitude
-0.00006°
Longitude
86.30818°
Altitude
520.683 km
Speed
7.604 km/s
True Right ascension
10h 56m 05s
True Declination
0° 00' 00"
Sunlit
Object was in daylight at epoch
Visualization orbit readout
Latitude
Unknown
Longitude
Unknown
Altitude
Unknown
Speed
Unknown
Apparent Right ascension
Unknown
Apparent Declination
Unknown
Sunlit
N/A
Visualization observer readout
Local Sidereal Time
07:12:27
Azimuth
Unknown
Elevation
Unknown
Doppler factor
Unknown
Orbital elements
Apogee altitude
525.089 km
Perigee altitude
514.99 km
Semi-major axis
6,898.177 km
Eccentricity
0.00073
Inclination
51.7976°
RAAN
164.0219°
Arg. of periapsis
265.8507°
True anomaly
94.24685°
Mean anomaly
94.1632°
Eccentric anomaly
94.20503°
Mean motion
3.78828 °/min
Orbital period
95.03 mins
BSTAR
0.00029558
Loading maneuver chart data...
Computing Atmospheric mass density...
Loading historical data...
Loading historical data...
Loading historical data...
Loading historical data...
Loading historical data...
Loading historical data...
Loading historical data...
Other satellites on launch #266 in the year 2025 (2025-11-19 UTC)

Documentation

Showing up to 5 results
|